False Pass, AK

4:38 AM AKDT on March 24, 2017 (GMT -0800)
False Pass

Weather History for PAKF - December, 2012

Change the Weather History Date:

Wednesday, December 5, 2012

  Actual Average (PACD) Record (PACD)
Temperature  
Mean Temperature 20 °F 32 °F  
Max Temperature 19 °F 37 °F 53 °F (2013)
Min Temperature 17 °F 28 °F 12 °F (1987)
Degree Days  
Heating Degree Days 45 33  
Month to date heating degree days 162  
Since 1 July heating degree days 3182  
Cooling Degree Days 0 0  
Month to date cooling degree days 0  
Year to date cooling degree days 0  
Moisture  
Dew Point 15 °F    
Average Humidity 78    
Maximum Humidity 93    
Minimum Humidity 66    
Precipitation  
Precipitation 0.00 in 0.17 in 1.19 in (1983)
Month to date precipitation 0.82  
Year to date precipitation 38.03  
Snow  
Snow 0.00 in 0.40 in 3.40 in (1960)
Month to date snowfall 2.0  
Since 1 July snowfall 14.6  
Snow Depth -    
Sea Level Pressure  
Sea Level Pressure 29.90 in    
Wind  
Wind Speed 13 mph (WNW)    
Max Wind Speed 24 mph    
Max Gust Speed 41 mph    
Visibility 4 miles    
Events Fog , Snow    
T = Trace of Precipitation, MM = Missing Value Source: NWS Daily Summary

Daily Weather History Graph

Daily Weather History Graph

Search for Another Location

Airport or City:

Trip Planner

Search our weather history database for the weather conditions in past years. The results will help you decide how hot, cold, wet, or windy it might be!

Date:

Astronomy

Dec. 05, 2012 Rise Set
Actual Time 9:00 AM HST 4:28 PM HST
Civil Twilight 8:16 AM HST 5:12 PM HST
Nautical Twilight 7:29 AM HST 5:59 PM HST
Astronomical Twilight 6:46 AM HST 6:42 PM HST
Moon No Moon Rise 12:41 PM HST (12/5)
Length of Visible Light 8h 55m
Length of Day
7h 27m
Waning Gibbous, 58% of the Moon is Illuminated
Dec 5
Waning Gibbous
Dec 6
Last Quarter
Dec 12
New
Dec 19
First Quarter
Dec 28
Full

Hourly Weather History & Observations

Time (HST) Temp. Windchill Dew Point Humidity Pressure Visibility Wind Dir Wind Speed Gust Speed Precip Events Conditions
12:01 AM 21.9 °F 9.8 °F 15.1 °F 75% 30.13 in 8.0 mi WNW 12.7 mph 21.9 mph 0.00 in Snow Light Snow
12:49 AM 21.2 °F 12.6 °F 15.8 °F 80% 29.84 in 9.0 mi Variable 6.9 mph 16.1 mph 0.00 in Snow Light Snow
1:01 AM 21.9 °F 14.5 °F 14.0 °F 72% 30.12 in 9.0 mi Variable 5.8 mph 23.0 mph 0.00 in Snow Light Snow
1:23 AM 21.2 °F 8.9 °F 15.8 °F 80% 29.83 in 9.0 mi NW 12.7 mph 20.7 mph 0.00 in Snow Light Snow
2:01 AM 21.9 °F 9.8 °F 15.1 °F 75% 30.12 in 9.0 mi NW 12.7 mph 23.0 mph 0.00 in Snow Light Snow
2:51 AM 21.2 °F 8.3 °F 14.0 °F 74% 29.83 in 9.0 mi West 13.8 mph 19.6 mph 0.00 in Snow Light Snow
3:01 AM 21.9 °F 9.2 °F 14.0 °F 72% 30.12 in 9.0 mi WNW 13.8 mph 24.2 mph 0.00 in Snow Light Snow
5:01 AM 21.9 °F 11.7 °F 14.0 °F 72% 30.12 in 9.0 mi WNW 9.2 mph 16.1 mph 0.00 in Snow Light Snow
6:01 AM 21.9 °F 9.2 °F 12.9 °F 68% 30.11 in 9.0 mi WNW 13.8 mph 20.7 mph 0.00 in Snow Light Snow
7:01 AM 21.9 °F 7.8 °F 12.9 °F 68% 30.10 in 9.0 mi WNW 17.3 mph 23.0 mph 0.00 in Snow Light Snow
8:01 AM 21.9 °F 9.8 °F 12.0 °F 66% 30.11 in 9.0 mi WNW 12.7 mph 18.4 mph 0.00 in Snow Light Snow
8:51 AM 21.2 °F 8.9 °F 15.8 °F 80% 29.82 in 3.0 mi WNW 12.7 mph 20.7 mph 0.00 in Snow Light Snow
9:01 AM 21.0 °F 10.6 °F 15.1 °F 78% 30.11 in 5.0 mi West 9.2 mph 20.7 mph 0.00 in Snow Light Snow
9:13 AM 21.2 °F 9.5 °F 14.0 °F 74% 29.81 in 9.0 mi WNW 11.5 mph - 0.00 in Snow Light Snow
9:24 AM 21.2 °F 10.9 °F 14.0 °F 74% 29.82 in 7.0 mi West 9.2 mph 20.7 mph 0.00 in Snow Light Snow
9:35 AM 21.2 °F 11.7 °F 14.0 °F 74% 29.82 in 9.0 mi WNW 8.1 mph - 0.00 in Snow Light Snow
9:44 AM 21.2 °F 11.7 °F 15.8 °F 80% 29.82 in 1.8 mi WNW 8.1 mph - 0.00 in Snow Light Snow
9:52 AM 21.2 °F 10.1 °F 15.8 °F 80% 29.81 in 3.0 mi WNW 10.4 mph 25.3 mph 0.00 in Snow Light Snow
10:01 AM 21.2 °F 10.1 °F 14.0 °F 74% 29.81 in 9.0 mi West 10.4 mph 19.6 mph 0.00 in Snow Light Snow
10:09 AM 21.2 °F 8.3 °F 14.0 °F 74% 29.82 in 9.0 mi West 13.8 mph 20.7 mph 0.00 in Snow Light Snow
11:01 AM 23.0 °F 11.7 °F 15.1 °F 72% 30.10 in 4.0 mi NW 11.5 mph 21.9 mph 0.00 in Snow Light Snow
11:03 AM 23.0 °F 12.4 °F 15.8 °F 74% 29.81 in 1.2 mi NW 10.4 mph 21.9 mph 0.00 in Snow Light Snow
11:05 AM 21.2 °F 9.5 °F 17.6 °F 86% 29.81 in 0.8 mi WNW 11.5 mph 21.9 mph 0.00 in Snow Light Snow
11:13 AM 21.2 °F 12.6 °F 17.6 °F 86% 29.82 in 1.5 mi Variable 6.9 mph 18.4 mph 0.00 in Snow Light Snow
11:15 AM 21.2 °F 10.1 °F 15.8 °F 80% 29.82 in 3.0 mi WSW 10.4 mph 16.1 mph 0.00 in Snow Light Snow
11:20 AM 21.2 °F 8.9 °F 15.8 °F 80% 29.82 in 5.0 mi WNW 12.7 mph 18.4 mph 0.00 in Snow Light Snow
11:32 AM 23.0 °F 11.1 °F 15.8 °F 74% 29.81 in 6.0 mi NW 12.7 mph 16.1 mph 0.00 in Snow Light Snow
11:41 AM 23.0 °F 14.7 °F 15.8 °F 74% 29.82 in 1.8 mi WNW 6.9 mph 18.4 mph 0.00 in Snow Light Snow
12:01 PM 23.0 °F 11.1 °F 15.8 °F 74% 29.82 in 2.0 mi WNW 12.7 mph 20.7 mph 0.00 in Snow Light Snow
12:10 PM 23.0 °F 12.4 °F 15.8 °F 74% 29.82 in 7.0 mi WNW 10.4 mph 26.5 mph 0.00 in Snow Light Snow
12:39 PM 21.2 °F 7.3 °F 17.6 °F 86% 29.81 in 2.5 mi NW 16.1 mph 31.1 mph 0.00 in Snow Light Snow
12:47 PM 21.2 °F 8.9 °F 15.8 °F 80% 29.82 in 6.0 mi WNW 12.7 mph 28.8 mph 0.00 in Snow Light Snow
1:01 PM 21.2 °F 8.3 °F 17.6 °F 86% 29.81 in 2.5 mi WNW 13.8 mph 20.7 mph 0.00 in Snow Light Snow
1:14 PM 21.9 °F 7.8 °F 16.0 °F 78% 30.10 in 2.0 mi WNW 17.3 mph 26.5 mph 0.00 in Snow Light Snow
1:21 PM 21.2 °F 8.9 °F 15.8 °F 80% 29.82 in 1.5 mi NW 12.7 mph 27.6 mph 0.00 in Snow Light Snow
1:25 PM 21.2 °F 8.3 °F 15.8 °F 80% 29.81 in 4.0 mi West 13.8 mph 27.6 mph 0.00 in Snow Light Snow
2:01 PM 21.9 °F 10.4 °F 12.9 °F 68% 30.10 in 10.0 mi NW 11.5 mph 19.6 mph 0.00 in Snow Light Snow
2:18 PM 21.2 °F 12.6 °F 12.2 °F 68% 29.81 in 8.0 mi West 6.9 mph 20.7 mph 0.00 in Snow Light Snow
2:39 PM 21.2 °F 6.8 °F 15.8 °F 80% 29.81 in 1.8 mi West 17.3 mph 23.0 mph 0.00 in Snow Light Snow
2:46 PM 21.2 °F 12.6 °F 15.8 °F 80% 29.81 in 2.0 mi Variable 6.9 mph 23.0 mph 0.00 in Snow Light Snow
2:54 PM 21.2 °F 8.9 °F 15.8 °F 80% 29.81 in 4.0 mi WNW 12.7 mph 18.4 mph 0.00 in Snow Light Snow
3:01 PM 21.0 °F 11.4 °F 15.1 °F 78% 30.10 in 1.8 mi WNW 8.1 mph 25.3 mph 0.00 in Snow Light Snow
3:10 PM 21.2 °F 9.5 °F 15.8 °F 80% 29.81 in 0.8 mi NW 11.5 mph 17.3 mph 0.00 in Snow Light Snow
3:14 PM 21.2 °F 10.9 °F 17.6 °F 86% 29.81 in 0.2 mi WNW 9.2 mph 18.4 mph 0.00 in Fog , Snow Snow
3:22 PM 21.2 °F 8.3 °F 17.6 °F 86% 29.81 in 0.8 mi NW 13.8 mph 23.0 mph 0.00 in Snow Light Snow
3:24 PM 21.2 °F 5.6 °F 17.6 °F 86% 29.81 in 1.2 mi WNW 20.7 mph 26.5 mph 0.00 in Snow Light Snow
3:30 PM 21.2 °F 4.5 °F 15.8 °F 80% 29.81 in 1.8 mi NW 24.2 mph 32.2 mph 0.00 in Snow Light Snow
3:41 PM 21.2 °F 7.8 °F 15.8 °F 80% 29.81 in 0.5 mi WNW 15.0 mph 26.5 mph 0.00 in Snow Snow
3:48 PM 19.4 °F 6.6 °F 17.6 °F 93% 29.81 in 0.2 mi WNW 12.7 mph 24.2 mph 0.00 in Fog , Snow Snow
3:53 PM 21.2 °F 8.9 °F 17.6 °F 86% 29.81 in 0.8 mi NNW 12.7 mph 26.5 mph 0.00 in Snow Light Snow
4:01 PM 21.0 °F 9.3 °F 17.1 °F 85% 30.11 in 0.8 mi WNW 11.5 mph 25.3 mph 0.00 in Snow Light Snow
4:07 PM 19.4 °F 4.1 °F 15.8 °F 86% 29.82 in 0.5 mi NW 18.4 mph 28.8 mph 0.00 in Fog , Snow Light Snow
4:46 PM 19.4 °F 6.6 °F 15.8 °F 86% 29.83 in 0.2 mi WNW 12.7 mph 26.5 mph 0.00 in Fog , Snow Heavy Snow
4:57 PM 19.4 °F 5.5 °F 15.8 °F 86% 29.82 in 0.5 mi NW 15.0 mph 23.0 mph 0.00 in Fog , Snow Light Snow
5:01 PM 19.4 °F 5.5 °F 15.8 °F 86% 29.82 in 1.0 mi WNW 15.0 mph 21.9 mph 0.00 in Snow Light Snow
5:08 PM 19.4 °F 4.5 °F 15.8 °F 86% 29.82 in 1.8 mi WNW 17.3 mph 26.5 mph 0.00 in Snow Light Snow
5:20 PM 19.4 °F 6.6 °F 14.0 °F 80% 29.82 in 2.5 mi WNW 12.7 mph 29.9 mph 0.00 in Snow Light Snow
5:27 PM 19.4 °F 6.0 °F 14.0 °F 80% 29.83 in 5.0 mi WNW 13.8 mph 26.5 mph 0.00 in Snow Light Snow
5:34 PM 19.9 °F 7.9 °F 14.0 °F 78% 30.12 in 4.0 mi West 11.5 mph 41.4 mph 0.00 in Snow Light Snow
6:01 PM 19.9 °F 5.7 °F 15.1 °F 81% 30.12 in 3.0 mi WNW 16.1 mph 24.2 mph 0.00 in Snow Light Snow
6:11 PM 19.4 °F 4.5 °F 15.8 °F 86% 29.84 in 2.0 mi WNW 17.3 mph 27.6 mph 0.00 in Snow Light Snow
6:22 PM 19.4 °F 3.2 °F 14.0 °F 80% 29.83 in 3.0 mi WNW 20.7 mph 36.8 mph 0.00 in Snow Light Snow
6:27 PM 19.4 °F 3.2 °F 14.0 °F 80% 29.83 in 1.8 mi NW 20.7 mph 36.8 mph 0.00 in Snow Light Snow
6:39 PM 19.4 °F 5.5 °F 12.2 °F 74% 29.84 in 2.5 mi WNW 15.0 mph 28.8 mph 0.00 in Snow Light Snow
6:42 PM 19.4 °F 4.1 °F 12.2 °F 74% 29.84 in 4.0 mi WNW 18.4 mph 27.6 mph 0.00 in Snow Light Snow
7:01 PM 19.4 °F 4.1 °F 12.2 °F 74% 29.85 in 4.0 mi WNW 18.4 mph 26.5 mph 0.00 in Snow Light Snow
7:10 PM 19.4 °F 3.6 °F 12.2 °F 74% 29.85 in 4.0 mi WNW 19.6 mph 26.5 mph 0.00 in Snow Light Snow
7:42 PM 19.4 °F 5.0 °F 10.4 °F 68% 29.86 in 7.0 mi NW 16.1 mph 31.1 mph 0.00 in Snow Light Snow
7:53 PM 17.6 °F 3.2 °F 12.2 °F 79% 29.87 in 1.8 mi West 15.0 mph 27.6 mph 0.00 in Snow Light Snow
7:58 PM 17.6 °F 1.3 °F 10.4 °F 73% 29.87 in 3.0 mi WNW 19.6 mph 28.8 mph 0.00 in Snow Light Snow
8:01 PM 19.0 °F 3.6 °F 10.0 °F 68% 30.16 in 5.0 mi WNW 18.4 mph 28.8 mph 0.00 in Snow Light Snow
8:23 PM 19.4 °F 3.2 °F 10.4 °F 68% 29.86 in 4.0 mi West 20.7 mph 28.8 mph 0.00 in Snow Light Snow
8:39 PM 19.4 °F 2.8 °F 12.2 °F 74% 29.85 in 1.8 mi West 21.9 mph 38.0 mph 0.00 in Snow Light Snow
8:44 PM 17.6 °F 1.3 °F 12.2 °F 79% 29.86 in 0.8 mi WNW 19.6 mph 38.0 mph 0.00 in Snow Light Snow
8:46 PM 17.6 °F 1.7 °F 14.0 °F 86% 29.86 in 0.5 mi WNW 18.4 mph 38.0 mph 0.00 in Fog , Snow Snow
8:53 PM 17.6 °F 1.7 °F 12.2 °F 79% 29.86 in 0.8 mi WNW 18.4 mph 36.8 mph 0.00 in Snow Light Snow
9:01 PM 19.4 °F 5.0 °F 12.2 °F 74% 29.86 in 1.5 mi West 16.1 mph 33.4 mph 0.00 in Snow Light Snow
9:09 PM 17.6 °F 2.2 °F 12.2 °F 79% 29.86 in 1.5 mi WNW 17.3 mph 39.1 mph 0.00 in Snow Light Snow
9:21 PM 19.0 °F 4.5 °F 12.9 °F 77% 30.16 in 1.5 mi WNW 16.1 mph 35.7 mph 0.00 in Snow Light Snow
9:27 PM 19.4 °F 5.5 °F 12.2 °F 74% 29.87 in 3.0 mi West 15.0 mph 29.9 mph 0.00 in Snow Light Snow
10:01 PM 19.4 °F 3.6 °F 12.2 °F 74% 29.88 in 2.0 mi West 19.6 mph 34.5 mph 0.00 in Snow Light Snow
10:10 PM 19.4 °F 2.8 °F 12.2 °F 74% 29.88 in 4.0 mi WNW 21.9 mph 34.5 mph 0.00 in Snow Light Snow
10:26 PM 19.4 °F 4.5 °F 14.0 °F 80% 29.89 in 2.0 mi WNW 17.3 mph 27.6 mph 0.00 in Snow Light Snow
10:40 PM 19.4 °F 4.5 °F 14.0 °F 80% 29.90 in 2.5 mi West 17.3 mph 29.9 mph 0.00 in Snow Light Snow
10:46 PM 19.0 °F 6.8 °F 14.0 °F 81% 30.19 in 2.5 mi WNW 11.5 mph 32.2 mph 0.00 in Snow Light Snow
11:01 PM 19.4 °F 5.5 °F 14.0 °F 80% 29.90 in 3.0 mi WNW 15.0 mph 26.5 mph 0.00 in Snow Light Snow
11:08 PM 19.4 °F 4.5 °F 15.8 °F 86% 29.90 in 0.8 mi WNW 17.3 mph 25.3 mph 0.00 in Snow Light Snow
11:18 PM 19.4 °F 3.6 °F 15.8 °F 86% 29.91 in 1.5 mi WNW 19.6 mph 26.5 mph 0.00 in Snow Light Snow
11:27 PM 19.4 °F 5.5 °F 15.8 °F 86% 29.92 in 3.0 mi West 15.0 mph 26.5 mph 0.00 in Snow Light Snow
11:44 PM 19.4 °F 7.9 °F 15.8 °F 86% 29.92 in 2.0 mi West 10.4 mph 23.0 mph 0.00 in Snow Light Snow
11:54 PM 19.4 °F 5.0 °F 14.0 °F 80% 29.92 in 5.0 mi WNW 16.1 mph 21.9 mph 0.00 in Snow Light Snow